When you browse on this site, cookies collect data to enhance your experience and personalize the content and advertising you see.
Visit our Privacy Policy to learn more. By continuing to use the site, you agree to this use of cookies and data.
  • In Schweiz
  • Länderverzeichnis
  • Für 7 Tage
  • Wassertemperatur
  • Wetterkarte
  • Widgets
  • user-avatar
    Anmelden

    Stündliche Wetter Ho-Chi-Minh-Stadt

    Heute, 27 Mai, Mittwoch

    Zeit Temperatur Niederschläge Wind Luftdruck Luftfeuchtigkeit
    00:00 +31°C° 0 mm 3 m/S 757 mmHg 72%
    01:00 +31°C° 0 mm 3 m/S 757 mmHg 74%
    02:00 +30°C° 0 mm 2 m/S 757 mmHg 76%
    03:00 +30°C° 0 mm 2 m/S 757 mmHg 78%
    04:00 +30°C° 0 mm 1 m/S 756 mmHg 80%
    05:00 +30°C° 0 mm 1 m/S 757 mmHg 78%
    06:00 +30°C° 0 mm 1 m/S 757 mmHg 76%
    07:00 +31°C° 0 mm 1 m/S 758 mmHg 75%
    08:00 +34°C° 0 mm 2 m/S 758 mmHg 67%
    09:00 +35°C° 0 mm 2 m/S 758 mmHg 59%
    10:00 +37°C° 0 mm 2 m/S 757 mmHg 50%
    11:00 +38°C° 0 mm 2 m/S 757 mmHg 46%
    12:00 +39°C° 0 mm 2 m/S 756 mmHg 41%
    13:00 +40°C° 0 mm 2 m/S 755 mmHg 36%
    14:00 +40°C° 0 mm 2 m/S 755 mmHg 36%
    15:00 +40°C° 0 mm 3 m/S 754 mmHg 36%
    16:00 +40°C° 0 mm 3 m/S 753 mmHg 36%
    17:00 +38°C° 0.1 mm 3 m/S 754 mmHg 45%
    18:00 +36°C° 0.1 mm 3 m/S 755 mmHg 54%
    19:00 +34°C° 0.1 mm 4 m/S 755 mmHg 63%
    20:00 +34°C° 0.1 mm 4 m/S 756 mmHg 65%
    21:00 +33°C° 0.1 mm 3 m/S 756 mmHg 67%
    22:00 +33°C° 0.1 mm 3 m/S 757 mmHg 69%
    23:00 +33°C° 0.1 mm 3 m/S 757 mmHg 71%

    Morgen, 28 Mai, Donnerstag

    Zeit Temperatur Niederschläge Wind Luftdruck Luftfeuchtigkeit
    00:00 +31°C° 0.1 mm 3 m/S 756 mmHg 73%
    01:00 +31°C° 0.1 mm 3 m/S 756 mmHg 75%
    02:00 +31°C° 0 mm 3 m/S 756 mmHg 77%
    03:00 +30°C° 0 mm 2 m/S 756 mmHg 78%
    04:00 +30°C° 0 mm 2 m/S 755 mmHg 80%
    05:00 +30°C° 0 mm 2 m/S 756 mmHg 79%
    06:00 +31°C° 0 mm 2 m/S 756 mmHg 77%
    07:00 +31°C° 0 mm 2 m/S 757 mmHg 76%
    08:00 +34°C° 0.1 mm 2 m/S 757 mmHg 68%
    09:00 +35°C° 0.1 mm 3 m/S 757 mmHg 61%
    10:00 +37°C° 0.1 mm 3 m/S 757 mmHg 54%
    11:00 +37°C° 0.1 mm 3 m/S 757 mmHg 51%
    12:00 +38°C° 0.1 mm 3 m/S 756 mmHg 48%
    13:00 +39°C° 0.1 mm 3 m/S 756 mmHg 44%
    14:00 +38°C° 0.7 mm 3 m/S 755 mmHg 49%
    15:00 +37°C° 0.7 mm 3 m/S 755 mmHg 53%
    16:00 +36°C° 0.7 mm 3 m/S 754 mmHg 57%
    17:00 +35°C° 2.2 mm 3 m/S 755 mmHg 62%
    18:00 +34°C° 2.2 mm 3 m/S 755 mmHg 67%
    19:00 +31°C° 2.2 mm 2 m/S 756 mmHg 72%
    20:00 +31°C° 0.8 mm 2 m/S 756 mmHg 73%
    21:00 +31°C° 0.8 mm 2 m/S 757 mmHg 74%
    22:00 +31°C° 0.8 mm 2 m/S 757 mmHg 75%
    23:00 +31°C° 0 mm 2 m/S 757 mmHg 76%

    übermorgen, 29 Mai, Freitag

    Zeit Temperatur Niederschläge Wind Luftdruck Luftfeuchtigkeit
    00:00 +30°C° 0 mm 1 m/S 757 mmHg 77%
    01:00 +30°C° 0 mm 1 m/S 756 mmHg 78%
    02:00 +30°C° 1.1 mm 1 m/S 756 mmHg 79%
    03:00 +30°C° 1.1 mm 1 m/S 756 mmHg 80%
    04:00 +30°C° 1.1 mm 1 m/S 756 mmHg 81%
    05:00 +30°C° 1.3 mm 1 m/S 756 mmHg 81%
    06:00 +30°C° 1.3 mm 1 m/S 757 mmHg 80%
    07:00 +30°C° 1.3 mm 1 m/S 757 mmHg 80%
    08:00 +31°C° 0.8 mm 2 m/S 757 mmHg 76%
    09:00 +32°C° 0.8 mm 2 m/S 758 mmHg 73%
    10:00 +32°C° 0.8 mm 2 m/S 758 mmHg 69%
    11:00 +33°C° 0.1 mm 3 m/S 757 mmHg 68%
    12:00 +33°C° 0.1 mm 3 m/S 757 mmHg 67%
    13:00 +33°C° 0.1 mm 3 m/S 756 mmHg 66%
    14:00 +33°C° 0 mm 3 m/S 756 mmHg 63%
    15:00 +34°C° 0 mm 3 m/S 755 mmHg 60%
    16:00 +35°C° 0 mm 2 m/S 755 mmHg 57%
    17:00 +34°C° 0.6 mm 3 m/S 755 mmHg 63%
    18:00 +33°C° 0.6 mm 3 m/S 756 mmHg 68%
    19:00 +31°C° 0.6 mm 3 m/S 756 mmHg 74%
    20:00 +31°C° 0.6 mm 2 m/S 757 mmHg 75%
    21:00 +30°C° 0.6 mm 2 m/S 757 mmHg 76%
    22:00 +30°C° 0.6 mm 2 m/S 758 mmHg 77%
    23:00 +30°C° 0.3 mm 2 m/S 758 mmHg 78%

    30 Mai, Samstag

    Zeit Temperatur Niederschläge Wind Luftdruck Luftfeuchtigkeit
    00:00 +30°C° 0.3 mm 2 m/S 757 mmHg 80%
    01:00 +30°C° 0.3 mm 2 m/S 757 mmHg 81%
    02:00 +29°C° 0 mm 2 m/S 757 mmHg 82%
    03:00 +29°C° 0 mm 2 m/S 757 mmHg 82%
    04:00 +29°C° 0 mm 1 m/S 757 mmHg 83%
    05:00 +30°C° 0 mm 1 m/S 757 mmHg 81%
    06:00 +30°C° 0 mm 1 m/S 757 mmHg 79%
    07:00 +31°C° 0 mm 2 m/S 758 mmHg 77%
    08:00 +32°C° 0.1 mm 2 m/S 758 mmHg 71%
    09:00 +34°C° 0.1 mm 2 m/S 758 mmHg 65%
    10:00 +36°C° 0.1 mm 3 m/S 758 mmHg 59%
    11:00 +36°C° 0.1 mm 3 m/S 758 mmHg 57%
    12:00 +37°C° 0.1 mm 3 m/S 757 mmHg 54%
    13:00 +38°C° 0.1 mm 3 m/S 756 mmHg 51%
    14:00 +37°C° 2.1 mm 4 m/S 756 mmHg 55%
    15:00 +36°C° 2.1 mm 4 m/S 756 mmHg 60%
    16:00 +34°C° 2.1 mm 5 m/S 756 mmHg 64%
    17:00 +33°C° 2.8 mm 5 m/S 756 mmHg 70%
    18:00 +32°C° 2.8 mm 5 m/S 757 mmHg 76%
    19:00 +29°C° 2.8 mm 5 m/S 758 mmHg 82%
    20:00 +28°C° 2.6 mm 4 m/S 758 mmHg 82%
    21:00 +28°C° 2.6 mm 3 m/S 759 mmHg 82%
    22:00 +27°C° 2.6 mm 2 m/S 759 mmHg 82%
    23:00 +27°C° 0 mm 2 m/S 759 mmHg 82%

    31 Mai, Sonntag

    Zeit Temperatur Niederschläge Wind Luftdruck Luftfeuchtigkeit
    00:00 +28°C° 0 mm 2 m/S 759 mmHg 82%
    01:00 +28°C° 0 mm 2 m/S 758 mmHg 82%
    02:00 +28°C° 0 mm 2 m/S 758 mmHg 82%
    03:00 +27°C° 0 mm 2 m/S 758 mmHg 83%
    04:00 +27°C° 0 mm 2 m/S 757 mmHg 83%
    05:00 +28°C° 0 mm 1 m/S 758 mmHg 81%
    06:00 +28°C° 0 mm 1 m/S 758 mmHg 79%
    07:00 +29°C° 0 mm 1 m/S 758 mmHg 77%
    08:00 +30°C° 0 mm 1 m/S 758 mmHg 70%
    09:00 +32°C° 0 mm 1 m/S 758 mmHg 64%
    10:00 +34°C° 0 mm 1 m/S 758 mmHg 58%
    11:00 +35°C° 0 mm 2 m/S 758 mmHg 56%
    12:00 +36°C° 0 mm 2 m/S 757 mmHg 54%
    13:00 +37°C° 0 mm 3 m/S 757 mmHg 52%
    14:00 +37°C° 0.3 mm 3 m/S 756 mmHg 54%
    15:00 +36°C° 0.3 mm 3 m/S 756 mmHg 56%
    16:00 +36°C° 0.3 mm 2 m/S 755 mmHg 58%
    17:00 +35°C° 1 mm 2 m/S 756 mmHg 64%
    18:00 +32°C° 1 mm 2 m/S 756 mmHg 70%
    19:00 +31°C° 1 mm 2 m/S 756 mmHg 76%
    20:00 +31°C° 0.2 mm 2 m/S 757 mmHg 77%
    21:00 +31°C° 0.2 mm 2 m/S 757 mmHg 78%
    22:00 +30°C° 0.2 mm 1 m/S 757 mmHg 79%
    23:00 +30°C° 0 mm 1 m/S 757 mmHg 79%

    1 Juni, Montag

    Zeit Temperatur Niederschläge Wind Luftdruck Luftfeuchtigkeit
    00:00 +30°C° 0 mm 2 m/S 757 mmHg 80%
    01:00 +30°C° 0 mm 2 m/S 757 mmHg 81%
    02:00 +29°C° 0 mm 2 m/S 756 mmHg 81%
    03:00 +29°C° 0 mm 1 m/S 756 mmHg 82%
    04:00 +29°C° 0 mm 1 m/S 756 mmHg 83%
    05:00 +29°C° 0 mm 1 m/S 757 mmHg 81%
    06:00 +30°C° 0 mm 1 m/S 757 mmHg 79%
    07:00 +30°C° 0 mm 1 m/S 757 mmHg 77%
    08:00 +32°C° 0 mm 2 m/S 757 mmHg 71%
    09:00 +34°C° 0 mm 2 m/S 757 mmHg 65%
    10:00 +35°C° 0 mm 2 m/S 758 mmHg 59%
    11:00 +36°C° 0.1 mm 2 m/S 757 mmHg 57%
    12:00 +37°C° 0.1 mm 2 m/S 756 mmHg 54%
    13:00 +37°C° 0.1 mm 2 m/S 756 mmHg 52%
    14:00 +37°C° 0.5 mm 3 m/S 755 mmHg 54%
    15:00 +37°C° 0.5 mm 3 m/S 755 mmHg 55%
    16:00 +36°C° 0.5 mm 3 m/S 754 mmHg 57%
    17:00 +35°C° 0.5 mm 3 m/S 755 mmHg 63%
    18:00 +33°C° 0.5 mm 3 m/S 755 mmHg 68%
    19:00 +31°C° 0.5 mm 3 m/S 755 mmHg 74%
    20:00 +31°C° 0 mm 3 m/S 756 mmHg 75%
    21:00 +30°C° 0 mm 3 m/S 756 mmHg 77%
    22:00 +30°C° 0 mm 2 m/S 757 mmHg 78%
    23:00 +30°C° 0.1 mm 2 m/S 757 mmHg 80%
    Mehr zeigen